Location: Torch Lake Township
(45.0753°N, 85.3586°W)
Time: 10:26:28
(UTC-05:00)

Amateur Radio Satellites - All Passes

Search period start: 30 January 2015 09:56
Search period end: 31 January 2015 09:56
Location: Torch Lake Township, 45.0753°N, 85.3586°W

Satellite Date Start Highest point End Downlink Frequencies (MHz)
Time Altitude Azimuth
POPSAT HIP 1 30 Jan 09:56:30 10:00:01 26° 67° (ENE) 10:03:37 437.405
BEESAT 2 30 Jan 09:58:10 10:01:17 20° 38° (NE) 10:04:25 435.950
DUCHIFAT 1 30 Jan 09:58:28 10:02:01 26° 67° (ENE) 10:05:38 145.980
PHONESAT 2.4 30 Jan 09:58:30 10:01:32 26° 163° (SSE) 10:04:36 2401.200-2431.200
AIST 2 30 Jan 10:00:11 10:02:07 13° 30° (NNE) 10:04:08 435.215
VELOX 1 30 Jan 10:09:00 10:10:05 11° 86° (E) 10:11:26 145.980
BEESAT 3 30 Jan 10:10:59 10:14:30 26° 42° (NE) 10:18:03 437.485
SEEDS 30 Jan 10:11:29 10:15:38 56° 287° (WNW) 10:19:43 437.485
GONETS M04 30 Jan 10:23:10 10:24:30 11° 45° (NE) 10:26:27
UKube-1 30 Jan 10:23:26 10:27:30 37° 98° (E) 10:31:35 .
SO-50 30 Jan 10:24:39 10:28:53 39° 118° (ESE) 10:33:18 436.795
RS-15 30 Jan 10:24:43 10:33:46 28° 4° (N) 10:43:07 29.354- 29.394
ANTELSAT 30 Jan 10:27:44 10:32:28 88° 76° (ENE) 10:37:11 437.575/2403.000
VERMONT LUNAR 30 Jan 10:30:52 10:34:08 37° 174° (S) 10:37:23 437.305
NANOSAT C BR1 30 Jan 10:32:33 10:36:45 59° 73° (ENE) 10:41:01 145.865
TIGRISAT 30 Jan 10:34:49 10:39:33 82° 256° (WSW) 10:44:16 435.000
HUMSAT D 30 Jan 10:35:09 10:38:39 25° 93° (E) 10:42:10 437.325/437.525
COMPASS 1 30 Jan 10:36:42 10:40:33 36° 290° (WNW) 10:44:21 437.405
CUBEBUG 2 30 Jan 10:37:30 10:42:06 70° 101° (E) 10:46:32 437.445
ZACube-1 30 Jan 10:40:19 10:44:41 52° 99° (E) 10:48:54 437.345
DX 1 30 Jan 10:45:23 10:49:47 67° 103° (ESE) 10:54:09 434.975-435.025
QB50P2 30 Jan 10:47:26 10:51:44 87° 76° (ENE) 10:56:04 145.880/145.840
DELFI C3 30 Jan 10:50:47 10:54:50 71° 285° (WNW) 10:58:51 145.870
FUNcube-1 30 Jan 10:51:51 10:56:18 68° 101° (E) 11:00:36 145.935
CANX-2 30 Jan 10:55:11 10:58:03 18° 296° (WNW) 11:00:48 2200.000
QB50P1 30 Jan 10:56:23 11:00:40 77° 257° (WSW) 11:05:00 145.935-145.965
BUGSAT 1 30 Jan 11:02:22 11:06:29 85° 256° (WSW) 11:10:42 437.445
AAUSAT CUBESAT 2 30 Jan 11:02:34 11:05:54 23° 293° (WNW) 11:09:08 437.432
CINEMA 3 30 Jan 11:09:55 11:14:24 36° 291° (WNW) 11:18:38 145.822/145.860
POLYITAN 1 30 Jan 11:12:05 11:16:17 51° 260° (W) 11:20:33 437.675
AISAT 30 Jan 11:15:12 11:19:39 54° 100° (E) 11:24:06 437.250
UWE-3 30 Jan 11:15:18 11:19:46 57° 287° (WNW) 11:24:03 435.000/436.395/437.385
CUTE 1.7 + AOD 2 30 Jan 11:20:25 11:21:52 11° 299° (WNW) 11:23:07 437.475
ESTCUBE 1 30 Jan 11:21:55 11:25:51 29° 95° (E) 11:29:51 437.505/2401.250
Oscar 11 30 Jan 11:23:50 11:27:34 29° 292° (WNW) 11:31:14 145.826/435.025
GOMX 1 30 Jan 11:25:37 11:28:56 16° 301° (WNW) 11:31:59 467.674
UNISAT 6 30 Jan 11:29:29 11:33:22 24° 267° (W) 11:37:10 437.425
AIST 1 30 Jan 11:29:47 11:33:49 45° 94° (E) 11:37:56
POPSAT HIP 1 30 Jan 11:31:56 11:35:49 32° 264° (W) 11:39:43 437.405
DOVE 4 30 Jan 11:32:23 11:35:46 17° 300° (WNW) 11:38:53 437.250
DUCHIFAT 1 30 Jan 11:33:58 11:37:48 31° 264° (W) 11:41:38 145.980
BEESAT 2 30 Jan 11:35:45 11:39:55 63° 238° (WSW) 11:43:59 435.950
50 SAT 30 Jan 11:36:03 11:40:09 88° 103° (ESE) 11:44:10 437.505
PHONESAT 2.4 30 Jan 11:36:17 11:39:42 40° 179° (S) 11:43:08 2401.200-2431.200
AIST 2 30 Jan 11:37:23 11:41:39 61° 51° (NE) 11:45:51 435.215
BRITE-PL 30 Jan 11:37:36 11:39:08 11° 305° (NW) 11:40:20 437.365/2234.400
PCSat 30 Jan 11:41:02 11:44:13 16° 33° (NNE) 11:47:32 145.827
HO-68 30 Jan 11:41:41 11:47:04 23° 305° (NW) 11:52:14 435.675
VELOX 1 30 Jan 11:42:51 11:47:22 81° 285° (WNW) 11:51:51 145.980
CUBEBUG 1 30 Jan 11:47:45 11:52:05 49° 99° (E) 11:56:25 437.445
BEESAT 3 30 Jan 11:48:52 11:52:48 41° 242° (WSW) 11:56:40 437.485
Oscar 19 30 Jan 11:49:22 11:52:23 16° 60° (ENE) 11:55:34 437.125/150
UKube-1 30 Jan 12:00:00 12:03:31 23° 294° (WNW) 12:06:55 .
TISAT 1 30 Jan 12:02:40 12:05:33 18° 91° (E) 12:08:33 437.305
SO-50 30 Jan 12:05:19 12:09:31 32° 317° (NW) 12:13:50 436.795
ANTELSAT 30 Jan 12:08:42 12:10:00 11° 275° (W) 12:11:01 437.575/2403.000
VERMONT LUNAR 30 Jan 12:08:42 12:11:52 33° 191° (S) 12:15:04 437.305
HUMSAT D 30 Jan 12:10:44 12:14:30 31° 291° (WNW) 12:18:11 437.325/437.525
NANOSAT C BR1 30 Jan 12:10:45 12:13:06 14° 272° (W) 12:15:15 145.865
CUBEBUG 2 30 Jan 12:15:40 12:18:16 15° 299° (WNW) 12:20:40 437.445
GONETS M04 30 Jan 12:15:53 12:24:15 49° 72° (ENE) 12:32:39
ZACube-1 30 Jan 12:17:39 12:20:41 18° 297° (WNW) 12:23:32 437.345
DX 1 30 Jan 12:23:05 12:25:34 15° 299° (WNW) 12:27:55 434.975-435.025
FUNcube-1 30 Jan 12:29:44 12:32:09 14° 298° (WNW) 12:34:21 145.935
RS-15 30 Jan 12:39:07 12:49:48 47° 37° (NE) 13:01:00 29.354- 29.394
AISAT 30 Jan 12:52:49 12:55:56 18° 297° (WNW) 12:58:54 437.250
ESTCUBE 1 30 Jan 12:58:44 13:02:45 31° 292° (WNW) 13:06:42 437.505/2401.250
SWISSCUBE 30 Jan 13:00:31 13:02:42 13° 87° (E) 13:05:09 437.505
SPROUT 30 Jan 13:04:24 13:08:48 83° 102° (ESE) 13:13:09 437.525
AIST 1 30 Jan 13:08:56 13:11:50 17° 293° (WNW) 13:14:37
Gurwin Techsat 1B 30 Jan 13:11:02 13:14:58 22° 62° (ENE) 13:19:03 435.225
PHONESAT 2.4 30 Jan 13:14:44 13:17:53 28° 196° (SSW) 13:21:02 2401.200-2431.200
BEESAT 30 Jan 13:15:22 13:18:28 17° 90° (E) 13:21:43 436.000
AIST 2 30 Jan 13:17:10 13:19:52 16° 248° (WSW) 13:22:23 435.215
ITUPSAT 1 30 Jan 13:19:52 13:23:11 19° 91° (E) 13:26:39 437.325
VELOX 1 30 Jan 13:22:24 13:23:16 10° 302° (WNW) 13:23:55 145.980
PCSat 30 Jan 13:23:22 13:28:47 65° 54° (NE) 13:34:11 145.827
CUBEBUG 1 30 Jan 13:24:58 13:28:09 19° 296° (WNW) 13:31:13 437.445
Oscar 19 30 Jan 13:25:57 13:31:10 80° 256° (WSW) 13:36:24 437.125/150
TISAT 1 30 Jan 13:37:32 13:41:40 46° 289° (WNW) 13:45:46 437.305
ITAMSAT 1 30 Jan 13:44:54 13:49:58 58° 71° (ENE) 13:55:06 435.822/435.867
VERMONT LUNAR 30 Jan 13:47:30 13:49:26 14° 206° (SSW) 13:51:18 437.305
SO-50 30 Jan 13:51:01 13:51:37 10° 341° (NNW) 13:52:07 436.795
HORYU 2 30 Jan 14:07:04 14:10:19 20° 64° (ENE) 14:13:41 437.375
DANDE 30 Jan 14:07:37 14:11:44 17° 52° (NE) 14:15:29 436.750
GONETS M04 30 Jan 14:13:05 14:20:59 40° 273° (W) 14:28:45
AO-7 30 Jan 14:26:28 14:33:39 34° 56° (ENE) 14:40:58 29.400- 29.500
CUSAT 1 30 Jan 14:29:34 14:34:42 25° 60° (ENE) 14:38:54 437.405
SWISSCUBE 30 Jan 14:36:26 14:41:13 74° 287° (WNW) 14:46:00 437.505
SPROUT 30 Jan 14:42:37 14:44:19 12° 299° (WNW) 14:45:50 437.525
STARS 30 Jan 14:43:28 14:46:27 18° 90° (E) 14:49:34 437.465
Gurwin Techsat 1B 30 Jan 14:49:22 14:54:36 57° 260° (W) 14:59:51 435.225
RS-15 30 Jan 14:51:43 15:02:57 68° 242° (WSW) 15:14:37 29.354- 29.394
KKS-1 30 Jan 14:52:00 14:56:02 32° 96° (E) 15:00:05 437.445
BEESAT 30 Jan 14:52:03 14:56:46 57° 288° (WNW) 15:01:26 436.000
JAS-2 30 Jan 14:54:38 14:56:56 13° 58° (ENE) 14:59:27 435.910
ITUPSAT 1 30 Jan 14:56:48 15:01:27 52° 289° (WNW) 15:06:07 437.325
PCSat 30 Jan 15:07:47 15:11:46 20° 253° (WSW) 15:15:33 145.827
Oscar 19 30 Jan 15:10:42 15:11:30 10° 276° (W) 15:11:55 437.125/150
AUBIESAT-1 30 Jan 15:25:38 15:26:30 11° 96° (E) 15:27:32 437.475
ITAMSAT 1 30 Jan 15:26:11 15:29:56 19° 270° (W) 15:33:33 435.822/435.867
HORYU 2 30 Jan 15:42:22 15:46:44 47° 261° (W) 15:51:05 437.375
O/OREOS (USA 219) 30 Jan 15:42:23 15:45:34 20° 102° (ESE) 15:48:55 437.305
DANDE 30 Jan 15:49:52 15:56:44 88° 264° (W) 16:01:44 436.750
CUSAT 1 30 Jan 16:12:17 16:18:17 47° 268° (W) 16:22:44 437.405
SWISSCUBE 30 Jan 16:17:22 16:18:20 10° 303° (WNW) 16:19:03 437.505
AO-7 30 Jan 16:17:43 16:26:02 65° 256° (WSW) 16:34:22 29.400- 29.500
STARS 30 Jan 16:18:57 16:23:17 48° 288° (WNW) 16:27:32 437.465
CUTE-I 30 Jan 16:21:36 16:23:36 12° 56° (NE) 16:25:52 437.470
M-CUBED/EXP-1 PRIME 30 Jan 16:26:23 16:29:43 75° 108° (ESE) 16:33:08 437.505
KKS-1 30 Jan 16:28:47 16:32:38 28° 293° (WNW) 16:36:24 437.445
JAS-2 30 Jan 16:36:02 16:41:29 90° 225° (SW) 16:46:42 435.910
MOZHAYETS 4 30 Jan 16:41:03 16:44:26 21° 91° (E) 16:47:55
AUBIESAT-1 30 Jan 16:58:34 17:01:46 46° 293° (WNW) 17:05:02 437.475
RS-15 30 Jan 17:07:04 17:13:34 16° 261° (W) 17:19:16 29.354- 29.394
SO-50 30 Jan 17:14:20 17:17:15 16° 29° (NNE) 17:20:18 436.795
O/OREOS (USA 219) 30 Jan 17:20:22 17:24:43 46° 300° (WNW) 17:29:06 437.305
DANDE 30 Jan 17:35:50 17:38:42 13° 284° (WNW) 17:40:59 436.750
Cubesat XI-IV 30 Jan 17:38:12 17:43:20 52° 70° (ENE) 17:48:34 437.490
CUTE-I 30 Jan 17:57:35 18:02:53 76° 74° (ENE) 18:08:15 437.470
PRISM 30 Jan 18:04:43 18:06:56 14° 90° (E) 18:09:19 437.425
AO-7 30 Jan 18:17:18 18:20:46 12° 278° (W) 18:23:34 29.400- 29.500
MOZHAYETS 4 30 Jan 18:17:34 18:21:55 44° 289° (WNW) 18:26:14
JAS-2 30 Jan 18:25:56 18:27:31 11° 275° (W) 18:28:45 435.910
CUBESAT XI-V 30 Jan 18:37:13 18:41:07 26° 93° (E) 18:45:07 437.345
HO-68 30 Jan 18:39:04 18:43:22 18° 51° (NE) 18:47:57 435.675
SO-50 30 Jan 18:53:54 18:58:48 64° 51° (NE) 19:03:42 436.795
YUBILEINY 30 Jan 19:17:00 19:24:48 40° 87° (E) 19:32:45 435.215
STRAND 1 30 Jan 19:19:07 19:24:04 46° 99° (E) 19:29:01 437.568
Cubesat XI-IV 30 Jan 19:19:38 19:23:50 22° 269° (W) 19:27:54 437.490
GOMX 1 30 Jan 19:19:54 19:23:10 17° 60° (ENE) 19:26:41 467.674
DOVE 4 30 Jan 19:25:43 19:28:21 14° 59° (ENE) 19:31:13 437.250
BRITE-PL 30 Jan 19:30:54 19:35:16 28° 65° (ENE) 19:39:58 437.365/2234.400
SEEDS 30 Jan 19:32:03 19:34:16 14° 63° (ENE) 19:36:37 437.485
PRISM 30 Jan 19:38:47 19:42:51 54° 288° (WNW) 19:46:55 437.425
CUTE-I 30 Jan 19:40:29 19:43:40 15° 273° (W) 19:46:38 437.470
COMPASS 1 30 Jan 19:55:24 19:58:28 20° 66° (ENE) 20:01:37 437.405
CUBEBUG 2 30 Jan 20:05:06 20:05:59 11° 58° (ENE) 20:07:07 437.445
DELFI C3 30 Jan 20:10:03 20:10:08 10° 61° (ENE) 20:10:26 145.870
CANX-2 30 Jan 20:13:13 20:17:18 45° 72° (ENE) 20:21:25 2200.000
CUBESAT XI-V 30 Jan 20:14:22 20:18:41 36° 291° (WNW) 20:22:58 437.345
AAUSAT CUBESAT 2 30 Jan 20:19:46 20:23:28 31° 69° (ENE) 20:27:12 437.432
HO-68 30 Jan 20:22:58 20:30:06 77° 71° (ENE) 20:37:16 435.675
SO-50 30 Jan 20:35:24 20:38:58 20° 248° (WSW) 20:42:24 436.795
CINEMA 3 30 Jan 20:36:14 20:40:39 33° 68° (ENE) 20:45:11 145.822/145.860
CUTE 1.7 + AOD 2 30 Jan 20:36:55 20:41:12 75° 76° (ENE) 20:45:30 437.475
UWE-3 30 Jan 20:39:15 20:42:25 19° 64° (ENE) 20:45:44 435.000/436.395/437.385
Oscar 11 30 Jan 20:44:29 20:48:14 30° 69° (ENE) 20:52:04 145.826/435.025
GOMX 1 30 Jan 20:55:29 21:00:38 78° 258° (WSW) 21:06:07 467.674
STRAND 1 30 Jan 20:58:49 21:03:03 26° 296° (WNW) 21:07:12 437.568
DOVE 4 30 Jan 21:00:15 21:05:22 88° 78° (ENE) 21:10:44 437.250
SEEDS 30 Jan 21:05:26 21:09:40 63° 260° (W) 21:13:54 437.485
VELOX 1 30 Jan 21:08:33 21:10:50 14° 61° (ENE) 21:13:17 145.980
BRITE-PL 30 Jan 21:08:39 21:13:33 44° 264° (W) 21:18:49 437.365/2234.400
YUBILEINY 30 Jan 21:13:08 21:21:31 49° 288° (WNW) 21:29:54 435.215
ISS 30 Jan 21:15:23 21:17:34 17° 135° (SE) 21:19:49 145.825
UKube-1 30 Jan 21:20:23 21:24:27 42° 70° (ENE) 21:28:35 .
HUMSAT D 30 Jan 21:29:17 21:32:49 25° 67° (ENE) 21:36:26 437.325/437.525
COMPASS 1 30 Jan 21:29:58 21:33:58 40° 262° (W) 21:37:58 437.405
AIST 1 30 Jan 21:35:51 21:38:22 15° 66° (ENE) 21:41:04
CUBEBUG 2 30 Jan 21:37:11 21:41:57 75° 74° (ENE) 21:46:45 437.445
ZACube-1 30 Jan 21:37:55 21:42:24 54° 73° (ENE) 21:46:56 437.345
DELFI C3 30 Jan 21:40:43 21:44:49 87° 258° (WSW) 21:48:55 145.870
DX 1 30 Jan 21:42:51 21:47:11 76° 74° (ENE) 21:51:34 434.975-435.025
FUNcube-1 30 Jan 21:49:13 21:53:48 70° 75° (ENE) 21:58:25 145.935
CANX-2 30 Jan 21:50:32 21:53:33 18° 270° (W) 21:56:25 2200.000
AAUSAT CUBESAT 2 30 Jan 21:55:38 21:59:10 25° 266° (W) 22:02:39 437.432
HO-68 30 Jan 22:13:14 22:18:39 22° 271° (W) 22:23:49 435.675
CINEMA 3 30 Jan 22:13:21 22:17:50 33° 266° (W) 22:22:22 145.822/145.860
UWE-3 30 Jan 22:13:58 22:18:36 57° 261° (W) 22:23:15 435.000/436.395/437.385
AISAT 30 Jan 22:15:08 22:19:31 63° 74° (ENE) 22:23:59 437.250
CUTE 1.7 + AOD 2 30 Jan 22:16:30 22:17:46 11° 274° (W) 22:18:47 437.475
ANTELSAT 30 Jan 22:19:33 22:22:10 16° 89° (E) 22:24:54 437.575/2403.000
Oscar 11 30 Jan 22:20:38 22:24:26 28° 265° (W) 22:28:11 145.826/435.025
ESTCUBE 1 30 Jan 22:23:40 22:27:42 34° 69° (ENE) 22:31:48 437.505/2401.250
50 SAT 30 Jan 22:25:06 22:29:13 71° 76° (ENE) 22:33:22 437.505
TIGRISAT 30 Jan 22:26:03 22:29:01 18° 90° (E) 22:32:04 435.000
QB50P2 30 Jan 22:32:56 22:34:47 13° 88° (E) 22:36:51 145.880/145.840
GOMX 1 30 Jan 22:38:51 22:39:53 10° 279° (W) 22:40:32 467.674
QB50P1 30 Jan 22:41:08 22:43:39 16° 89° (E) 22:46:20 145.935-145.965
DOVE 4 30 Jan 22:41:39 22:44:01 13° 276° (W) 22:46:07 437.250
VELOX 1 30 Jan 22:42:30 22:46:56 70° 258° (WSW) 22:51:24 145.980
BUGSAT 1 30 Jan 22:44:36 22:46:31 13° 88° (E) 22:48:38 437.445
CUBEBUG 1 30 Jan 22:45:56 22:50:09 53° 72° (ENE) 22:54:27 437.445
ISS 30 Jan 22:50:27 22:53:43 75° 330° (NNW) 22:57:02 145.825
POLYITAN 1 30 Jan 22:56:24 22:59:48 23° 93° (E) 23:03:16 437.675
TISAT 1 30 Jan 22:57:29 23:00:23 19° 64° (ENE) 23:03:25 437.305
UKube-1 30 Jan 22:57:37 23:00:51 20° 268° (W) 23:04:00 .
HUMSAT D 30 Jan 23:04:31 23:08:30 34° 264° (W) 23:12:29 437.325/437.525
AIST 1 30 Jan 23:12:13 23:16:29 54° 265° (W) 23:20:45
POPSAT HIP 1 30 Jan 23:15:08 23:19:06 34° 96° (E) 23:23:03 437.405
ZACube-1 30 Jan 23:16:02 23:19:10 17° 271° (W) 23:22:10 437.345
DUCHIFAT 1 30 Jan 23:16:46 23:20:44 35° 97° (E) 23:24:42 145.980
CUBEBUG 2 30 Jan 23:16:50 23:19:17 13° 274° (W) 23:21:30 437.445
UNISAT 6 30 Jan 23:18:48 23:23:15 64° 100° (E) 23:27:35 437.425
YUBILEINY 30 Jan 23:19:28 23:21:17 10° 315° (NW) 23:22:30 435.215
DX 1 30 Jan 23:22:38 23:24:05 11° 273° (W) 23:25:17 434.975-435.025
FUNcube-1 30 Jan 23:28:18 23:30:43 14° 273° (W) 23:32:54 145.935
NANOSAT C BR1 30 Jan 23:51:33 23:55:53 86° 103° (ESE) 00:00:11 145.865
AISAT 30 Jan 23:54:13 23:56:40 14° 272° (W) 23:58:57 437.250
ANTELSAT 30 Jan 23:55:03 23:59:25 54° 288° (WNW) 00:03:40 437.575/2403.000
SPROUT 31 Jan 00:00:24 00:04:44 81° 74° (ENE) 00:09:06 437.525
ESTCUBE 1 31 Jan 00:00:55 00:04:41 25° 266° (W) 00:08:24 437.505/2401.250
TIGRISAT 31 Jan 00:01:49 00:06:08 47° 289° (WNW) 00:10:18 435.000
50 SAT 31 Jan 00:03:43 00:04:55 11° 273° (W) 00:05:53 437.505
QB50P2 31 Jan 00:06:57 00:11:15 65° 286° (WNW) 00:15:29 145.880/145.840
SWISSCUBE 31 Jan 00:08:51 00:12:17 21° 63° (ENE) 00:15:50 437.505
QB50P1 31 Jan 00:15:43 00:19:57 53° 287° (WNW) 00:24:07 145.935-145.965
BUGSAT 1 31 Jan 00:18:16 00:22:31 64° 286° (WNW) 00:26:45 437.445
BEESAT 31 Jan 00:23:47 00:27:40 26° 65° (ENE) 00:31:37 436.000
CUBEBUG 1 31 Jan 00:24:09 00:26:56 16° 270° (W) 00:29:34 437.445
ISS 31 Jan 00:27:42 00:30:35 27° 351° (N) 00:33:28 145.825
ITUPSAT 1 31 Jan 00:28:39 00:32:39 28° 66° (ENE) 00:36:43 437.325
TISAT 1 31 Jan 00:31:49 00:35:55 46° 261° (W) 00:40:04 437.305
POLYITAN 1 31 Jan 00:31:54 00:35:54 36° 290° (WNW) 00:39:49 437.675
POPSAT HIP 1 31 Jan 00:51:20 00:54:53 24° 293° (WNW) 00:58:19 437.405
DUCHIFAT 1 31 Jan 00:52:58 00:56:27 24° 294° (WNW) 00:59:49 145.980
UNISAT 6 31 Jan 00:56:58 00:59:35 15° 298° (WNW) 01:02:02 437.425
GONETS M04 31 Jan 01:19:13 01:27:34 53° 90° (E) 01:35:57
NANOSAT C BR1 31 Jan 01:29:44 01:31:10 11° 300° (WNW) 01:32:25 145.865
BEESAT 2 31 Jan 01:34:01 01:36:22 15° 111° (ESE) 01:38:53 435.950
Oscar 19 31 Jan 01:35:55 01:40:27 31° 95° (E) 01:45:00 437.125/150
SPROUT 31 Jan 01:41:01 01:41:31 10° 274° (W) 01:41:45 437.525
STARS 31 Jan 01:42:37 01:45:57 22° 65° (ENE) 01:49:25 437.465
M-CUBED/EXP-1 PRIME 31 Jan 01:44:39 01:46:41 14° 60° (ENE) 01:48:47 437.505
SWISSCUBE 31 Jan 01:45:13 01:49:51 51° 260° (W) 01:54:30 437.505
BEESAT 3 31 Jan 01:45:19 01:48:30 22° 114° (ESE) 01:51:47 437.485
O/OREOS (USA 219) 31 Jan 01:48:53 01:53:25 55° 62° (ENE) 01:57:56 437.305
KKS-1 31 Jan 01:52:08 01:56:16 38° 70° (ENE) 02:00:28 437.445
ITAMSAT 1 31 Jan 01:56:46 02:00:10 18° 89° (E) 02:03:45 435.822/435.867
BEESAT 31 Jan 02:00:54 02:05:22 39° 263° (W) 02:09:50 436.000
ISS 31 Jan 02:04:44 02:07:41 29° 12° (NNE) 02:10:39 145.825
ITUPSAT 1 31 Jan 02:06:04 02:10:27 36° 263° (W) 02:14:50 437.325
AUBIESAT-1 31 Jan 02:15:03 02:18:15 26° 64° (ENE) 02:21:19 437.475
Gurwin Techsat 1B 31 Jan 03:03:27 03:08:37 49° 99° (E) 03:13:46 435.225
BEESAT 2 31 Jan 03:10:03 03:14:09 61° 308° (NW) 03:18:19 435.950
RS-15 31 Jan 03:12:12 03:17:12 15° 98° (E) 03:23:04 29.354- 29.394
Oscar 19 31 Jan 03:15:09 03:19:52 36° 293° (WNW) 03:24:30 437.125/150
AIST 2 31 Jan 03:15:30 03:19:44 68° 122° (ESE) 03:24:02 435.215
GONETS M04 31 Jan 03:16:42 03:24:45 38° 292° (WNW) 03:32:41
M-CUBED/EXP-1 PRIME 31 Jan 03:17:35 03:21:27 52° 254° (WSW) 03:25:02 437.505
STARS 31 Jan 03:17:58 03:22:13 42° 262° (W) 03:26:29 437.465
DANDE 31 Jan 03:19:35 03:25:50 25° 83° (E) 03:32:27 436.750
BEESAT 3 31 Jan 03:22:29 03:26:25 42° 312° (NW) 03:30:25 437.485
O/OREOS (USA 219) 31 Jan 03:29:24 03:32:28 17° 259° (WSW) 03:35:21 437.305
KKS-1 31 Jan 03:29:27 03:33:05 23° 267° (W) 03:36:39 437.445
HORYU 2 31 Jan 03:32:05 03:35:55 28° 95° (E) 03:39:46 437.375
ITAMSAT 1 31 Jan 03:35:01 03:40:12 64° 288° (WNW) 03:45:23 435.822/435.867
CUSAT 1 31 Jan 03:37:22 03:44:39 36° 88° (E) 03:52:02 437.405
ISS 31 Jan 03:41:08 03:44:27 85° 211° (SSW) 03:47:45 145.825
MOZHAYETS 4 31 Jan 03:45:06 03:48:48 25° 67° (ENE) 03:52:36
AUBIESAT-1 31 Jan 03:49:54 03:53:12 25° 258° (WSW) 03:56:15 437.475
PCSat 31 Jan 04:07:14 04:12:11 39° 113° (ESE) 04:17:14 145.827
AO-7 31 Jan 04:17:10 04:24:50 40° 97° (E) 04:32:32 29.400- 29.500
Gurwin Techsat 1B 31 Jan 04:44:01 04:48:21 25° 296° (WNW) 04:52:34 435.225
BEESAT 2 31 Jan 04:51:25 04:53:17 12° 330° (NNW) 04:55:03 435.950
AIST 2 31 Jan 04:55:37 04:58:49 20° 323° (NW) 05:01:59 435.215
PRISM 31 Jan 04:57:44 05:00:05 15° 63° (ENE) 05:02:34 437.425
DANDE 31 Jan 05:00:04 05:08:31 86° 281° (W) 05:17:09 436.750
STRAND 1 31 Jan 05:01:38 05:03:35 12° 57° (ENE) 05:05:46 437.568
HORYU 2 31 Jan 05:08:40 05:12:37 31° 292° (WNW) 05:16:29 437.375
RS-15 31 Jan 05:16:55 05:27:39 68° 119° (ESE) 05:38:33 29.354- 29.394
ITAMSAT 1 31 Jan 05:17:53 05:18:49 10° 305° (NW) 05:19:28 435.822/435.867
ISS 31 Jan 05:18:53 05:20:31 13° 227° (SW) 05:22:03 145.825
CUSAT 1 31 Jan 05:19:09 05:27:27 60° 286° (WNW) 05:35:33 437.405
MOZHAYETS 4 31 Jan 05:21:39 05:25:55 37° 263° (W) 05:30:10
YUBILEINY 31 Jan 05:24:21 05:30:46 23° 59° (ENE) 05:37:31 435.215
JAS-2 31 Jan 05:26:08 05:31:49 67° 102° (ESE) 05:38:13 435.910
CUBESAT XI-V 31 Jan 05:42:44 05:46:47 32° 68° (ENE) 05:50:54 437.345
PCSat 31 Jan 05:50:39 05:55:40 37° 312° (NW) 06:00:42 145.827
Cubesat XI-IV 31 Jan 05:54:28 05:57:57 18° 89° (E) 06:01:37 437.490
AO-7 31 Jan 06:09:52 06:17:54 53° 297° (WNW) 06:25:49 29.400- 29.500
CUTE-I 31 Jan 06:13:14 06:17:37 26° 93° (E) 06:22:06 437.470
PRISM 31 Jan 06:31:12 06:35:14 55° 259° (W) 06:39:17 437.425
STRAND 1 31 Jan 06:36:57 06:42:03 80° 73° (ENE) 06:47:12 437.568
DANDE 31 Jan 06:46:32 06:53:17 24° 302° (WNW) 06:59:39 436.750
CUSAT 1 31 Jan 07:07:21 07:12:18 16° 307° (NW) 07:16:40 437.405
JAS-2 31 Jan 07:12:22 07:16:38 22° 297° (WNW) 07:21:02 435.910
YUBILEINY 31 Jan 07:20:10 07:29:00 88° 262° (W) 07:37:50 435.215
CUBESAT XI-V 31 Jan 07:20:13 07:24:15 29° 266° (W) 07:28:16 437.345
RS-15 31 Jan 07:30:24 07:40:47 45° 325° (NW) 07:51:18 29.354- 29.394
Cubesat XI-IV 31 Jan 07:33:16 07:38:37 67° 288° (WNW) 07:43:58 437.490
PCSat 31 Jan 07:39:28 07:40:48 11° 336° (NNW) 07:41:59 145.827
HO-68 31 Jan 07:51:58 07:53:48 11° 82° (E) 07:56:12 435.675
CUTE-I 31 Jan 07:52:49 07:57:57 47° 291° (WNW) 08:03:04 437.470
AO-7 31 Jan 08:04:47 08:08:57 14° 319° (NW) 08:12:46 29.400- 29.500
VERMONT LUNAR 31 Jan 08:11:53 08:14:03 16° 156° (SSE) 08:16:17 437.305
STRAND 1 31 Jan 08:19:23 08:22:00 13° 273° (W) 08:24:20 437.568
CUTE 1.7 + AOD 2 31 Jan 08:22:50 08:23:58 11° 86° (E) 08:25:20 437.475
UNISAT 6 31 Jan 08:47:49 08:47:59 10° 58° (ENE) 08:48:24 437.425
SEEDS 31 Jan 08:49:01 08:51:55 18° 91° (E) 08:54:56 437.485
GOMX 1 31 Jan 08:56:10 09:00:56 31° 93° (E) 09:05:33 467.674
DOVE 4 31 Jan 08:58:41 09:02:45 24° 90° (E) 09:06:46 437.250
BRITE-PL 31 Jan 09:11:19 09:16:57 60° 99° (E) 09:22:19 437.365/2234.400
COMPASS 1 31 Jan 09:11:59 09:15:32 27° 94° (E) 09:19:06 437.405
SO-50 31 Jan 09:13:38 09:15:09 12° 108° (ESE) 09:16:56 436.795
Cubesat XI-IV 31 Jan 09:16:13 09:17:51 11° 305° (NW) 09:19:12 437.490
YUBILEINY 31 Jan 09:18:49 09:24:43 19° 282° (WNW) 09:30:10 435.215
ANTELSAT 31 Jan 09:20:23 09:23:49 21° 64° (ENE) 09:27:20 437.575/2403.000
DELFI C3 31 Jan 09:21:16 09:22:30 11° 87° (E) 09:23:56 145.870
PHONESAT 2.4 31 Jan 09:22:40 09:25:37 24° 161° (SSE) 09:28:35 2401.200-2431.200
TIGRISAT 31 Jan 09:26:34 09:30:12 23° 65° (ENE) 09:33:55 435.000
QB50P2 31 Jan 09:28:23 09:30:34 14° 62° (ENE) 09:32:56 145.880/145.840
CUBEBUG 2 31 Jan 09:28:35 09:30:49 14° 87° (E) 09:33:13 437.445
DX 1 31 Jan 09:31:42 09:32:57 11° 87° (E) 09:34:28 434.975-435.025
CANX-2 31 Jan 09:32:24 09:36:39 70° 101° (E) 09:40:50 2200.000
HO-68 31 Jan 09:35:58 09:43:06 67° 103° (ESE) 09:50:14 435.675
AAUSAT CUBESAT 2 31 Jan 09:36:19 09:40:18 43° 98° (E) 09:44:16 437.432
QB50P1 31 Jan 09:36:23 09:39:03 17° 63° (ENE) 09:41:51 145.935-145.965
BUGSAT 1 31 Jan 09:37:36 09:39:23 13° 61° (ENE) 09:41:21 437.445
FUNcube-1 31 Jan 09:38:31 09:39:52 11° 86° (E) 09:41:26 145.935
VERMONT LUNAR 31 Jan 09:48:26 09:51:38 34° 171° (S) 09:54:52 437.305
